Regional Weather Roundup
Issued by NWS Wakefield, VA

Home | Current Version | Previous Version | Graphics & Text | Print | Product List | Glossary On
Versions: 1 2 3 4 5 6 7 8 9 10 11 12 13 14 15 16 17 18 19 20 21 22 23 24 25 26 27 28 29 30 31 32 33 34 35 36 37 38 39 40 41 42 43 44 45 46 47 48 49 50
000
ASUS41 KAKQ 181015
RWRAKQ

REGIONAL WEATHER ROUNDUP
NATIONAL WEATHER SERVICE WAKEFIELD VA
600 AM EDT WED OCT 18 2017

Note: "fair" indicates few or no clouds below 12,000 feet with no
significant weather and/or obstructions to visibility. * = Denotes
station may not report precipitation (e.g., rain,snow,etc.),
thunder or fog.

VAZ042-051-052>054-056-181100-
NORTHERN VIRGINIA

CITY           SKY/WX    TMP DP  RH WIND       PRES   REMARKS
WASH NATIONAL  PTCLDY    48  40  73 SW3       30.36R
DULLES         CLEAR     38  37  97 CALM      30.35R
FORT BELVOIR   CLEAR     38  37  96 CALM      30.35S
QUANTICO       CLEAR     42  42 100 NW5       30.37R
FREDERICKSBRG* CLEAR     37  37 100 CALM      30.35S
STAFFORD*      CLEAR     32  32 100 CALM      30.40R
WARRENTON      CLEAR     33  31  92 CALM      30.35R FOG
CULPEPER*      CLEAR     35  33  94 CALM      30.36S
MANASSAS*      CLEAR     35  34  96 CALM      30.36R
LEESBURG*      CLEAR     37  37 100 CALM      30.36R
WINCHESTER     CLEAR     41  36  81 CALM      30.34R
FRONT ROYAL*   SUNNY     39  37  93 CALM      30.34R
LURAY*         SUNNY     37  37 100 CALM      30.36R
$$

VAZ048-049-060>072-079>083-181100-
CENTRAL AND SOUTH CENTRAL VIRGINIA

CITY           SKY/WX    TMP DP  RH WIND       PRES   REMARKS
RICHMOND       CLEAR     39  37  92 CALM      30.36R
CHESTERFIELD*  NOT AVBL
PETERSBURG*    CLEAR    N/A N/A N/A CALM      30.37S
HANOVER        CLEAR     38  37  97 CALM      30.37R
TAPPAHANNOCK*  CLEAR    N/A N/A N/A CALM      30.36S
QUINTON*       FAIR      38  38 100 CALM      30.36R
CHARLOTTSVILLE CLEAR     38  37  97 CALM      30.35R
GORDONSVILLE*  SUNNY     35  35 100 CALM      30.35R
ORANGE*        CLEAR     34  34 100 CALM      30.35R
LOUISA*        CLEAR     32  30  93 CALM      30.35R
BUMPASS*       FAIR      36  36 100 CALM      30.35S
FARMVILLE*     CLEAR     34  34 100 CALM      30.35S
CREWE*         FAIR      34  34 100 CALM      30.35S
FORT PICKETT*  FAIR      37  37 100 CALM      30.35S
CHASE CITY*    FAIR      37  37 100 CALM      30.35R
CLARKSVILLE*   CLOUDY    36  36 100 CALM      30.35R
SOUTH HILL*    CLEAR     34  34 100 CALM      30.41R
LAWRENCEVILLE* FAIR      37  36  97 CALM      30.35S
EMPORIA*       CLEAR     34  32  93 CALM      30.37S
$$

VAZ088>098-181100-
SOUTHEAST VIRGINIA

CITY           SKY/WX    TMP DP  RH WIND       PRES   REMARKS
NORFOLK        CLEAR     47  45  93 CALM      30.34R
VIRGINIA BEACH PTCLDY    46  42  86 CALM      30.32R
NORFOLK NAVAL  PTCLDY    47  44  90 CALM      30.35S
WEST POINT*    CLOUDY    39  39 100 CALM      30.38R VSB 3/4
SALUDA*        FAIR      40  40 100 CALM      30.35R
NEWPORT NEWS   CLEAR     42  40  92 CALM      30.36R
LANGLEY AFB    CLEAR     46  45  95 CALM      30.35R
FORT EUSTIS    CLEAR     43  40  88 CALM      30.33R
WILLIAMSBURG*  CLEAR     43  43 100 CALM      30.37R
HR EXEC AP*    NOT AVBL
FRANKLIN*      PTCLDY    36  36  97 CALM      30.36S
US460-WAKEFLD  PTCLDY    36  36 100 CALM      30.36R
$$

VAZ020-022-025-037-045-181100-
WEST CENTRAL AND SOUTHWEST VIRGINIA

CITY           SKY/WX    TMP DP  RH WIND       PRES   REMARKS
STAUNTON*      CLEAR     32  30  95 CALM      30.37S
WAYNESBORO*    SUNNY     35  35  99 SW3       30.35S
HOT SPRINGS VA CLEAR     46  28  48 CALM      30.34S
LYNCHBURG      CLEAR     36  36 100 CALM      30.35R
DANVILLE       CLEAR     36  35  96 CALM      30.36R
SOUTH BOSTON*  FAIR      33  32  95 CALM      30.35S
MARTINSVILLE   CLEAR     33  33  97 CALM      30.38R
ROANOKE        CLEAR     41  38  89 CALM      30.37S
BLACKSBURG     CLEAR     37  37 100 CALM      30.38R
DUBLIN*        CLEAR     37  37  98 W3        30.37R
MARION*        CLOUDY    36  33  90 CALM      30.36S
HILLSVILLE*    CLEAR     39  35  86 CALM      30.33R
RICHLANDS*     FAIR      44  36  73 E5        30.32S
WISE*          CLOUDY    43  36  75 CALM      30.33R
ABINGDON*      CLOUDY    45  39  82 E7        30.32S
$$

MDZ021>025-VAZ099-100-181100-
SOUTHERN MARYLAND AND THE DELMARVA PENINSULA

CITY           SKY/WX    TMP DP  RH WIND       PRES   REMARKS
PATUXENT RIVER CLEAR     40  31  70 W3        30.35R
BAY BRIDGE APT CLEAR     52  45  76 W8        30.35R
LEONARDTOWN    NOT AVBL
DOVER          CLEAR     43  43 100 SW5       30.33S
GEORGETOWN     CLEAR     39  37  92 CALM      30.36R
EASTON         CLEAR     43  41  93 CALM      30.39R
CAMBRIDGE      CLEAR     37  37 100 CALM      30.35R
SALISBURY      CLEAR     37  35  92 CALM      30.35R
OCEAN CITY     CLEAR     38  37  97 CALM      30.36R
WALLOPS ISLAND CLEAR     40  40 100 NW5       30.35R
ACCOMACK*      CLEAR     39  38  98 CALM      30.35S
$$

NCZ012>017-030>032-181100-
NORTH CENTRAL AND EASTERN NORTH CAROLINA

CITY           SKY/WX    TMP DP  RH WIND       PRES   REMARKS
ROANOKE RAPIDS FAIR      36  36 100 CALM      30.34S
RALEIGH        CLEAR     39  38  96 CALM      30.35R
ELIZABETH CITY CLEAR     52  49  89 N9        30.33R
AHOSKIE*       CLEAR     37  37  99 CALM      30.35S
EDENTON*       NOT AVBL
CURRITUCK*     CLEAR     47  46  94 CALM      30.33S
KILL DEVIL HLS PTCLDY    58  48  68 NE7       30.30R
MANTEO         CLEAR    N/A N/A N/A NE7       30.31R
CAPE HATTERAS  CLEAR     61  53  75 NE9       30.28R
TARBORO*       NOT AVBL
GOLDSBORO      CLEAR     44  41  88 CALM      30.32R
WASHINGTON     CLEAR     45  43  93 N6        30.33R
GREENVILLE     CLEAR     39  39 100 CALM      30.33S FOG
NEW BERN       CLEAR     50  47  89 NE12      30.32R
WILMINGTON     CLEAR     49  45  86 N8        30.29R
$$

VAZ048-181100-
ELSEWHERE

CITY           SKY/WX    TMP DP  RH WIND       PRES   REMARKS
HARRISBURG PA  CLEAR     43  42  97 CALM      30.33R
BALTIMORE      CLEAR     39  39 100 SW3       30.34R
ANNAPOLIS      CLEAR     45  44  97 CALM      30.35R
ANDREWS AFB    CLEAR     41  39  94 CALM      30.34R
PHILADELPHIA   CLEAR     48  42  80 SW7       30.34R
HENDERSON NC   CLEAR     34  33  96 CALM      30.35R
GREENSBORO     CLEAR     42  39  89 CALM      30.34R
ROCKY MOUNT    CLEAR     40  40 100 CALM      30.34R
$$

VAZ100-181100-
MARINE

STATION/POSITION TIME  TEMP    WIND        PRES    WAVE   SWELL
                       AIR SEA DIR/SP/G            HT/PER HT/PER
                 (UTC) (F)     (DEG/KT/KT) (MB)    (FT/S) (FT/S)
BRANDYWINE LGT   0942   56     260/ 10/ 12 1027.7R
CAPE MAY NJ      0948   57 64  280/  8/ 10 1026.9R
LEWES DE         0948   48 63  230/  7/  9 1027.4R
15NM E FENWICK I 0950   59 67  320/  6/  8 1027.9R   3/10   3/10
OCEAN-CITY-INLET 0948   49 65  340/  3/  4 1028.1R
WACHAPREAGUE VA  0948   43 62  300/  1/  2 1027.6R
THOMAS POINT MD  1000   52 67  270/  9/  9   N/A
GOOSES REEF MD   0950   55     290/ 10/ 12 1027.6R
COVE POINT MD    0948   52     300/  5/  6 1028.4R
SOLOMONS ISLAND  0948   52 70  290/  4/  6 1027.5R
BISHOPS HEAD MD  0948   57 61  110/  3/  4 1027.8R
PINEY POINT MD   0936          280/  7/  8   N/A
POTOMAC MD       0950   58     270/  6/  8 1027.1R
CAMBRIDGE MD     0942   45 66              1028.3R
LEWISETTA VA     0948   48 64  270/  5/  6 1027.7R
RAPPAHANNOCK LGT 0948          100/  4/  5 1028.3R
STINGRAY PT      0950   57     330/  6/  8 1027.9R
YORK RVR RNG VA  0948   56     350/  7/ 10 1028.2R
YORKTOWN VA      0948   55 70  320/  5/  6 1027.5R
JAMESTOWN VA     0950          360/  4/  6   N/A
DOMINION TERM VA 0948   54      60/  1/  3 1027.7R
KIPTOPEKE VA     0948      66   30/  5/  7   N/A
CAPE HENRY VA    0948   58      10/ 12/ 14   N/A
WILLOUBY STN VA  0948   56     350/  7/  8 1027.4R
S CRANEY ISL VA  0948   50     310/  3/  4 1027.3R
CAPE HENRY BUOY  0930      70                N/A     3/ 7   2/11
1ST LANDING BUOY 0950   58                 1027.4R
CAPE CHARLES BUO 0951      70                N/A     3/11   2/11
64NM E OF VA BCH 0950   61 67   30/ 14/ 16 1026.6R   5/ 7   3/ 7
DUCK PIER NC     0948   60 69   40/ 13/ 17 1026.1R
44100 DUCK FRF   0935      71                N/A     5/ 8   2/11
44056 DUCK FRF   0930      70                N/A     4/ 8   2/11
OREGON INLET NC  0936   61 65   30/ 10/ 13 1025.8R
HATTERAS NC      0948   62 67   40/ 10/ 15 1025.1R
DIAMOND SHLS NC  0950   68 81   20/ 21/ 25 1023.8R   7/ 8   3/ 8
CAPE LOOKOUT NC  1000   59      10/ 14/ 17 1024.8R
$$



USA.gov is the U.S. government's official web portal to all federal, state and local government web resources and services.